Location: Unspecified
(52.4292°N, 19.3359°E)
Time: 00:54:00
(UTC+02:00)

A-11 Canister half - Pass Details

Date: 25 May 2024
Orbit: 1514 x 1685 km, 47.2° (Epoch: 20 June)

Event Time Altitude Azimuth Distance (km) Brightness Sun altitude
Rises 01:59:21 0° 217° (SW) 4,789 - -14.5°
Reaches altitude 10° 02:02:45 10° 210° (SSW) 3,781 - -14.4°
Exits shadow 02:05:00 18° 202° (SSW) 3,166 10.0 -14.2°
Maximum altitude 02:11:15 38° 147° (SSE) 2,201 9.5 -13.9°
Drops below altitude 10° 02:19:33 10° 84° (E) 3,694 11.4 -13.4°
Sets 02:22:48 0° 76° (ENE) 4,668 12.1 -13.2°
